Great Bend, KS

8:45 PM CDT on March 22, 2017 (GMT -0500)
Great Bend Municipal

Weather History for KGBD - February, 2014

Change the Weather History Date:

Monday, February 17, 2014

  Actual Average Record
Temperature  
Mean Temperature 48 °F -  
Max Temperature 60 °F 48 °F 73 °F (2017)
Min Temperature 35 °F 24 °F 19 °F (2015)
Degree Days  
Heating Degree Days 18    
Moisture  
Dew Point 26 °F    
Average Humidity 45    
Maximum Humidity 75    
Minimum Humidity 20    
Precipitation  
Precipitation 0.00 in - - ()
Sea Level Pressure  
Sea Level Pressure 29.99 in    
Wind  
Wind Speed 14 mph (West)    
Max Wind Speed 34 mph    
Max Gust Speed 51 mph    
Visibility 10 miles    
Events      
Averages and records for this station are not official NWS values.
T = Trace of Precipitation, MM = Missing Value Source: NWS Daily Summary

Daily Weather History Graph

Daily Weather History Graph

Search for Another Location

Airport or City:

Trip Planner

Search our weather history database for the weather conditions in past years. The results will help you decide how hot, cold, wet, or windy it might be!

Date:

Astronomy

Feb. 17, 2014 Rise Set
Actual Time 7:23 AM CST 6:16 PM CST
Civil Twilight 6:56 AM CST 6:42 PM CST
Nautical Twilight 6:25 AM CST 7:13 PM CST
Astronomical Twilight 5:54 AM CST 7:44 PM CST
Moon 9:08 PM CST (2/17) 8:27 AM CST (2/17)
Length of Visible Light 11h 46m
Length of Day
10h 52m
Waning Gibbous, 93% of the Moon is Illuminated
Feb 17
Waning Gibbous
Feb 22
Last Quarter
Mar 1
New
Mar 8
First Quarter
Mar 16
Full

Hourly Weather History & Observations

Time (CST) Temp. Windchill Dew Point Humidity Pressure Visibility Wind Dir Wind Speed Gust Speed Precip Events Conditions
12:15 AM 39.2 °F 33.6 °F 28.4 °F 65% 29.70 in 10.0 mi SSW 8.1 mph - N/A   Clear
12:35 AM 39.2 °F 34.2 °F 30.2 °F 70% 29.72 in 10.0 mi SW 6.9 mph - N/A   Clear
12:55 AM 37.4 °F 29.8 °F 28.4 °F 70% 29.74 in 10.0 mi WSW 11.5 mph - N/A   Clear
1:15 AM 37.4 °F 31.4 °F 28.4 °F 70% 29.75 in 10.0 mi West 8.1 mph - N/A   Clear
1:35 AM 35.6 °F 29.9 °F 26.6 °F 70% 29.76 in 10.0 mi WNW 6.9 mph - N/A   Clear
1:55 AM 35.6 °F 31.7 °F 26.6 °F 70% 29.77 in 10.0 mi West 4.6 mph - N/A   Clear
2:15 AM 35.6 °F 27.5 °F 28.4 °F 75% 29.78 in 10.0 mi WNW 11.5 mph - N/A   Clear
2:35 AM 41.0 °F 33.9 °F 32.0 °F 70% 29.79 in 10.0 mi NW 12.7 mph - N/A   Clear
2:55 AM 44.6 °F 37.8 °F 33.8 °F 66% 29.81 in 10.0 mi NW 15.0 mph 20.7 mph N/A   Clear
3:15 AM 46.4 °F 37.7 °F 32.0 °F 57% 29.81 in 10.0 mi NW 26.5 mph 35.7 mph N/A   Clear
3:35 AM 48.2 °F - 28.4 °F 46% 29.82 in 10.0 mi NW 32.2 mph 42.6 mph N/A   Clear
3:55 AM 48.2 °F - 24.8 °F 40% 29.84 in 10.0 mi NW 32.2 mph 39.1 mph N/A   Clear
4:15 AM 48.2 °F - 26.6 °F 43% 29.86 in 10.0 mi NW 32.2 mph 43.7 mph N/A   Clear
4:35 AM 48.2 °F - 26.6 °F 43% 29.89 in 10.0 mi NW 28.8 mph 38.0 mph N/A   Clear
4:55 AM 46.4 °F 36.5 °F 30.2 °F 53% 29.92 in 10.0 mi NNW 34.5 mph 50.6 mph N/A   Clear
5:15 AM 44.6 °F 34.7 °F 30.2 °F 57% 29.94 in 10.0 mi NNW 29.9 mph 41.4 mph N/A   Clear
5:35 AM 44.6 °F 34.4 °F 28.4 °F 53% 29.97 in 10.0 mi NNW 32.2 mph 38.0 mph N/A   Clear
5:55 AM 42.8 °F 34.0 °F 28.4 °F 57% 29.99 in 10.0 mi NNW 20.7 mph 28.8 mph N/A   Clear
6:15 AM 42.8 °F 34.8 °F 28.4 °F 57% 30.01 in 10.0 mi NW 17.3 mph - N/A   Clear
6:35 AM 41.0 °F 32.8 °F 28.4 °F 61% 30.03 in 10.0 mi NW 16.1 mph - N/A   Clear
6:55 AM 39.2 °F 30.5 °F 28.4 °F 65% 30.04 in 10.0 mi NW 16.1 mph - N/A   Scattered Clouds
7:15 AM 39.2 °F 30.8 °F 28.4 °F 65% 30.04 in 10.0 mi NW 15.0 mph - N/A   Scattered Clouds
7:35 AM 39.2 °F 32.0 °F 28.4 °F 65% 30.06 in 10.0 mi NW 11.5 mph - N/A   Scattered Clouds
7:55 AM 37.4 °F 30.3 °F 28.4 °F 70% 30.07 in 10.0 mi WNW 10.4 mph - N/A   Scattered Clouds
8:15 AM 39.2 °F 32.5 °F 28.4 °F 65% 30.08 in 10.0 mi NW 10.4 mph - N/A   Partly Cloudy
8:35 AM 41.0 °F 33.9 °F 30.2 °F 65% 30.09 in 10.0 mi NW 12.7 mph - N/A   Clear
8:55 AM 42.8 °F 36.6 °F 30.2 °F 61% 30.09 in 10.0 mi NW 11.5 mph - N/A   Clear
9:15 AM 44.6 °F 38.1 °F 30.2 °F 57% 30.10 in 10.0 mi NW 13.8 mph - N/A   Clear
9:35 AM 46.4 °F 41.5 °F 30.2 °F 53% 30.09 in 10.0 mi NW 10.4 mph 17.3 mph N/A   Clear
9:55 AM 48.2 °F - 30.2 °F 50% 30.10 in 10.0 mi NW 12.7 mph - N/A   Clear
10:15 AM 48.2 °F - 30.2 °F 50% 30.10 in 10.0 mi NW 13.8 mph - N/A   Clear
10:35 AM 48.2 °F - 30.2 °F 50% 30.10 in 10.0 mi NW 10.4 mph - N/A   Clear
10:55 AM 51.8 °F - 30.2 °F 44% 30.11 in 10.0 mi NW 9.2 mph - N/A   Clear
11:15 AM 51.8 °F - 26.6 °F 38% 30.10 in 10.0 mi NW 13.8 mph 18.4 mph N/A   Clear
11:35 AM 53.6 °F - 26.6 °F 35% 30.10 in 10.0 mi NW 13.8 mph 20.7 mph N/A   Clear
11:55 AM 53.6 °F - 24.8 °F 33% 30.11 in 10.0 mi NW 13.8 mph 21.9 mph N/A   Clear
12:15 PM 55.4 °F - 23.0 °F 29% 30.10 in 10.0 mi WNW 12.7 mph 19.6 mph N/A   Clear
12:35 PM 55.4 °F - 21.2 °F 26% 30.09 in 10.0 mi NNW 11.5 mph 17.3 mph N/A   Clear
12:55 PM 57.2 °F - 21.2 °F 25% 30.08 in 10.0 mi NW 11.5 mph 20.7 mph N/A   Clear
1:15 PM 57.2 °F - 19.4 °F 23% 30.08 in 10.0 mi West 13.8 mph - N/A   Clear
1:35 PM 57.2 °F - 21.2 °F 25% 30.08 in 10.0 mi WNW 15.0 mph - N/A   Clear
1:55 PM 57.2 °F - 19.4 °F 23% 30.08 in 10.0 mi West 16.1 mph 19.6 mph N/A   Clear
2:15 PM 59.0 °F - 21.2 °F 23% 30.07 in 10.0 mi West 12.7 mph 19.6 mph N/A   Clear
2:35 PM 59.0 °F - 21.2 °F 23% 30.06 in 10.0 mi West 11.5 mph 18.4 mph N/A   Clear
2:55 PM 60.8 °F - 19.4 °F 20% 30.05 in 10.0 mi West 13.8 mph - N/A   Clear
3:15 PM 60.8 °F - 19.4 °F 20% 30.05 in 10.0 mi WSW 10.4 mph 17.3 mph N/A   Clear
3:35 PM 59.0 °F - 19.4 °F 22% 30.05 in 10.0 mi West 13.8 mph - N/A   Clear
3:55 PM 60.8 °F - 19.4 °F 20% 30.04 in 10.0 mi WSW 9.2 mph - N/A   Clear
4:15 PM 60.8 °F - 19.4 °F 20% 30.04 in 10.0 mi WSW 13.8 mph - N/A   Clear
4:35 PM 60.8 °F - 21.2 °F 22% 30.04 in 10.0 mi WSW 16.1 mph - N/A   Clear
4:55 PM 60.8 °F - 21.2 °F 22% 30.03 in 10.0 mi WSW 11.5 mph - N/A   Clear
5:15 PM 59.0 °F - 24.8 °F 27% 30.03 in 10.0 mi WSW 16.1 mph - N/A   Clear
5:35 PM 57.2 °F - 24.8 °F 29% 30.02 in 10.0 mi WSW 13.8 mph - N/A   Clear
5:55 PM 53.6 °F - 24.8 °F 33% 30.02 in 10.0 mi SW 10.4 mph - N/A   Clear
6:15 PM 50.0 °F - 24.8 °F 37% 30.03 in 10.0 mi SW 9.2 mph - N/A   Clear
6:35 PM 46.4 °F 41.9 °F 24.8 °F 43% 30.03 in 10.0 mi SSW 9.2 mph - N/A   Clear
6:55 PM 46.4 °F 41.5 °F 24.8 °F 43% 30.03 in 10.0 mi SSW 10.4 mph - N/A   Clear
7:15 PM 46.4 °F 41.1 °F 24.8 °F 43% 30.02 in 10.0 mi SSW 11.5 mph - N/A   Clear
7:35 PM 46.4 °F 40.7 °F 24.8 °F 43% 30.02 in 10.0 mi SSW 12.7 mph - N/A   Clear
7:55 PM 46.4 °F 40.7 °F 24.8 °F 43% 30.02 in 10.0 mi SSW 12.7 mph - N/A   Clear
8:15 PM 46.4 °F 40.7 °F 24.8 °F 43% 30.01 in 10.0 mi SSW 12.7 mph - N/A   Clear
8:35 PM 44.6 °F 37.4 °F 24.8 °F 46% 30.00 in 10.0 mi SSW 16.1 mph - N/A   Clear
8:55 PM 44.6 °F 37.8 °F 24.8 °F 46% 29.99 in 10.0 mi SSW 15.0 mph - N/A   Clear
9:15 PM 44.6 °F 37.4 °F 23.0 °F 43% 29.98 in 10.0 mi SSW 16.1 mph - N/A   Clear
9:35 PM 44.6 °F 37.8 °F 23.0 °F 43% 29.98 in 10.0 mi SSW 15.0 mph - N/A   Clear
9:55 PM 44.6 °F 38.1 °F 23.0 °F 43% 29.98 in 10.0 mi SSW 13.8 mph - N/A   Clear
10:15 PM 44.6 °F 37.8 °F 23.0 °F 43% 29.97 in 10.0 mi SSW 15.0 mph 19.6 mph N/A   Clear
10:35 PM 44.6 °F 37.2 °F 21.2 °F 39% 29.96 in 10.0 mi SSW 17.3 mph - N/A   Clear
10:55 PM 46.4 °F 39.8 °F 21.2 °F 37% 29.96 in 10.0 mi SSW 16.1 mph - N/A   Clear
11:15 PM 44.6 °F 38.1 °F 21.2 °F 39% 29.95 in 10.0 mi SSW 13.8 mph - N/A   Clear
11:35 PM 46.4 °F 40.4 °F 21.2 °F 37% 29.94 in 10.0 mi South 13.8 mph - N/A   Clear
11:55 PM 46.4 °F 39.2 °F 21.2 °F 37% 29.93 in 10.0 mi SSW 18.4 mph 25.3 mph N/A   Clear